Home   Weather   Charleston   Past weeks

Flag for USA Past Weather in Charleston, West Virginia, USA — Yesterday and Last 2 Weeks

Now
46 °F

Partly sunny.


Feels Like: 42 °F
Forecast: 48 / 62 °F
Wind: 7 mph from Northeast

Location: Yeager Airport

Current Time: Apr 23, 2017 at 8:14:48 am

Latest Report: Apr 23, 2017 at 6:54 am


Visibility: 10 mi

Pressure: 29.99 "Hg

Humidity: 83%

Dew Point: 41 °F

Location of CharlestonLocation

Past Weather in Charleston — Graph

°F

Charleston Temperature Yesterday

Maximum temperature yesterday: 57 °F (at 12:54 am)
Minimum temperature yesterday: 46 °F (at 11:54 pm)
Average temperature yesterday: 50 °F

High & Low Weather Summary for the Past Weeks

 TemperatureHumidityPressure
High83 °F (Apr 10, 4:54 pm)96% (Apr 8, 6:54 am)30.36 "Hg (Apr 8, 6:54 am)
Low30 °F (Apr 8, 6:54 am)12% (Apr 9, 2:54 pm)29.88 "Hg (Apr 21, 4:54 pm)
Average63 °F58%30.12 "Hg
* Reported Apr 8 6:28 am — Apr 23 6:54 am, Charleston, Weather by CustomWeather, © 2017

Note: Actual official high and low records may vary slightly from our data, if they occured in-between our weather recording intervals... More about our weather records

Advertising

Charleston Weather History for the Previous 24 Hours

Scroll right to see more
 ConditionsComfort  
Time TempWeatherWind HumidityBarometerVisibility
6:54 am
Sun, Apr 23
46 °FPartly sunny.7 mph83%29.99 "Hg10 mi
6:07 am46 °FPassing clouds.8 mph83%29.98 "Hg10 mi
5:54 am46 °FOvercast.8 mph86%29.98 "Hg10 mi
4:54 am46 °FMostly cloudy.6 mph86%29.99 "Hg10 mi
3:54 am46 °FOvercast.3 mph89%30.00 "Hg10 mi
2:54 am45 °FOvercast.No wind93%30.00 "Hg10 mi
1:54 am45 °FPartly cloudy.No wind93%30.01 "Hg10 mi
12:54 am45 °FPassing clouds.3 mph90%30.01 "Hg10 mi
11:54 pm
Sat, Apr 22
46 °FFog.No wind93%30.02 "Hg4 mi
10:54 pm47 °FPassing clouds.No wind93%30.03 "Hg10 mi
10:44 pm47 °FPassing clouds.No wind93%30.03 "Hg10 mi
9:54 pm48 °FPassing clouds.5 mph86%30.02 "Hg10 mi
9:08 pm49 °FPartly cloudy.5 mph84%30.02 "Hg10 mi
7:54 pm50 °FOvercast.3 mph80%30.01 "Hg10 mi
7:14 pm50 °FLow clouds.6 mph83%30.01 "Hg10 mi
6:54 pm50 °FLow clouds.6 mph83%30.01 "Hg10 mi
5:54 pm49 °FLow clouds.7 mph86%30.00 "Hg10 mi
4:54 pm49 °FLight rain. Fog.7 mph93%30.00 "Hg6 mi
4:16 pm50 °FLight rain. Fog.6 mph89%30.00 "Hg4 mi
3:54 pm50 °FLight rain. Fog.6 mph89%30.00 "Hg4 mi
2:54 pm49 °FLight rain. Fog.7 mph93%29.98 "Hg4 mi
1:54 pm49 °FFog.6 mph90%29.99 "Hg6 mi
12:54 pm48 °FHeavy rain. Fog.5 mph93%30.01 "Hg4 mi
11:54 am49 °FLight rain. Fog.5 mph86%30.00 "Hg4 mi
10:54 am49 °FLow clouds.5 mph84%30.00 "Hg10 mi
9:54 am49 °FLow clouds.7 mph84%29.98 "Hg7 mi
8:54 am49 °FLow clouds.8 mph84%29.98 "Hg10 mi
Weather by CustomWeather, © 2017

See weather overviewHow to use our weather pages